STARLINK-1676 (46556 NORAD) Tracking and Keplerian Element Data

This shows tracking and keplerian element data for the satellite.

Feedback or suggestion? Click here.




ElementValue
Catalog46556
NameSTARLINK-1676
Epoch Orbit177
Epoch Day304.91667824
Epoch Year2020
RAAN321.9606
Inclination52.9999
Eccentricity9.86E-05
Argument of Perigee76.7977
Mean Anonmoly170.4184
Mean Motion15.62746669
Decay Rate5.037E-05
L11 46556U 20070AA 20304.91667824 .00005037 00000-0 60825-4 0 9997
L22 46556 52.9999 321.9606 0000986 76.7977 170.4184 15.62746669 1776

Live tracking and technical data element details for STARLINK-1676 (NORAD 46556). STARLINK-1676 can be tracked NOW for your location showing map with azimuth and elevation plus other details from your city location.

Track the satellite on the map from your city or location and see movement details for azimuth, elevation, latitude, longitude, range, height, and movement on the map or in text.







IsCatalogInMostPopularTable: catalog: 46556, numindb: 3
Update: records affected: 1



GetName: 46556 STARLINK-1676

Hit Count: updated at: Sat, 31 Oct 2020 10:57:45 GMT